Regional Weather Roundup
Issued by NWS

Home | Current Version | Previous Version | Graphics & Text | Print | Product List | Glossary On
Versions: 1 2 3 4 5 6 7 8 9 10 11 12 13 14 15 16 17 18 19 20 21 22 23 24 25 26 27 28 29 30 31 32 33 34 35 36 37 38 39 40 41 42 43 44 45 46 47 48 49 50
000
ASUS43 KMKX 180200
RWRWI

WISCONSIN REGIONAL WEATHER ROUNDUP
NATIONAL WEATHER SERVICE MILWAUKEE/SULLIVAN WI
900 PM CDT WED SEP 17 2014

NOTE: "FAIR" INDICATES FEW OR NO CLOUDS BELOW 12,000 FEET WITH NO
SIGNIFICANT WEATHER AND/OR OBSTRUCTIONS TO VISIBILITY.

WIZ001-002-006>008-014>016-023>028-180300-
NORTHWEST WISCONSIN

CITY           SKY/WX    TMP DP  RH WIND       PRES   REMARKS
SUPERIOR ARPT  CLOUDY    47  43  84 NE10G21   30.10R
ASHLAND        CLOUDY    46  40  79 NE14      30.13R
HAYWARD        CLOUDY    47  44  90 NE9       30.08R
SIREN          MOCLDY    51  46  86 NE13      30.05R
RICE LAKE      CLEAR     55  49  80 NE13      30.03R
LADYSMITH      CLEAR     54  49  83 N8        30.05R
EAU CLAIRE     CLEAR     56  53  90 CALM      30.00R
MENOMONIE      CLEAR     59  54  83 CALM      29.99R
NEW RICHMOND   CLEAR     55  53  92 CALM      30.00R
OSCEOLA        CLEAR     57  56  99 CALM      30.02R
$$

WIZ003>005-009-010-017-018-180300-
NORTH CENTRAL WISCONSIN

CITY           SKY/WX    TMP DP  RH WIND       PRES   REMARKS
WOODRUFF       CLOUDY    52  47  82 NE9       30.06R
RHINELANDER    CLOUDY    51  46  83 NE7       30.06R
EAGLE RIVER    CLOUDY    47  42  80 NE10      30.06R
LAND O LAKES   CLOUDY    45  42  91 NE7       30.08R
PHILLIPS       CLEAR     51  46  83 NE8       30.04R
TOMAHAWK       CLEAR     52  47  82 N3        30.04R
MEDFORD        PTCLDY    53  51  91 N10       30.01R
MERRILL        MOCLDY    57  52  82 NE8       30.02R
$$

WIZ029-030-035-036-043>047-180300-
CENTRAL WISCONSIN

CITY           SKY/WX    TMP DP  RH WIND       PRES   REMARKS
WAUSAU         PTCLDY    55  52  89 N9        29.99R
MOSINEE        PTCLDY    57  54  88 W5        30.01R
MARSHFIELD     CLEAR     55  52  89 CALM      30.00R
STEVENS POINT  CLEAR     52  49  88 CALM      30.00R
WAUPACA        CLEAR     57  53  86 CALM      29.99R
WAUTOMA        NOT AVBL
WISC RAPIDS    CLEAR     53  51  93 CALM      30.01R
CAMP DOUGLAS   NOT AVBL
$$

WIZ011>013-019>022-031-037>040-048>050-180300-
NORTHEAST WISCONSIN

CITY           SKY/WX    TMP DP  RH WIND       PRES   REMARKS
ANTIGO         CLOUDY    54  51  89 E9        30.03R
STURGEON BAY   MOCLDY    52  46  82 NE14G22   30.04R
GREEN BAY      CLOUDY    55  51  86 NE21G30   30.02R
MANITOWOC      NOT AVBL
APPLETON       PTCLDY    55  48  76 W6        29.99R
CLINTONVILLE   MOCLDY    54  50  87 NE5       29.99R
OSHKOSH        CLEAR     59  50  72 SW3       29.99R
$$

WIZ032>034-041-042-053>061-180300-
SOUTHWEST WISCONSIN

CITY           SKY/WX    TMP DP  RH WIND       PRES   REMARKS
LA CROSSE      CLEAR     59  55  87 SE3       29.99R
SPARTA         CLEAR     53  50  92 CALM      30.01R
VIROQUA        FAIR      59  50  73 CALM      30.01R
BOSCOBEL       CLEAR     54  52  93 CALM      30.01R
PRAIRIE DU CHI CLEAR     55  52  87 CALM      29.99R
PLATTEVILLE    FAIR      60  51  72 CALM      30.01R
$$

WIZ056-057-062-063-064-067-068-180300-
SOUTH CENTRAL WISCONSIN

CITY           SKY/WX    TMP DP  RH WIND       PRES   REMARKS
BARABOO/DELLS  CLEAR     54  50  86 CALM      30.00R
LONE ROCK      NOT AVBL
WATERTOWN      CLEAR     52  51  96 CALM      30.00R
MADISON        CLEAR     56  51  84 CALM      30.01R
MIDDLETON      FAIR      56  55  95 CALM      30.01R
MONROE         CLEAR     63  50  63 E5        30.00R
JANESVILLE     CLEAR     55  52  88 CALM      30.00R
$$

WIZ051-052-058>065-066-070>072-180300-
SOUTHEAST WISCONSIN

CITY           SKY/WX    TMP DP  RH WIND       PRES   REMARKS
MILWAUKEE      PTCLDY    58  48  69 S3        30.01R
WAUKESHA       CLEAR     55  48  76 CALM      30.02R
MILWAUKEE/TIMM CLEAR     55  46  71 CALM      30.01R
RACINE         CLEAR     54  49  83 S5        30.03R
BURLINGTON     CLEAR     48  47  96 CALM      30.01R
KENOSHA        CLEAR     52  48  86 CALM      30.02R
FOND DU LAC    CLEAR     56  50  80 CALM      30.00R
SHEBOYGAN      CLEAR     54  49  83 CALM      30.00R
WEST BEND      CLEAR     54  46  76 CALM      30.00S
JUNEAU         CLEAR     54  50  87 CALM      30.02R
$$

LSZ147-162-180300-
LAKE SUPERIOR

STATION/POSITION TIME  TEMP    WIND        PRES    WAVE
                       AIR SEA DIR/SP/G            HT/PER
                 (UTC) (F)     (DEG/KT/KT) (MB)    (FT/S)
W MID LAKE BUOY  0050   45 47   70/ 14/ 16 1020.3R   4/ 6
DEVILS ISLAND    0100   46      80/ 21/ 24 1020.4R
PORT WING        0100   47      90/  4/ 12 1020.0
SAXON HARBOR     0100   49      50/ 18/ 22 1019.3R
$$

LMZ867-665-643>646-180300-
LAKE MICHIGAN

STATION/POSITION TIME  TEMP    WIND        PRES    WAVE
                       AIR SEA DIR/SP/G            HT/PER
                 (UTC) (F)     (DEG/KT/KT) (MB)    (FT/S)
N MID LAKE BUOY  0050   53 58   20/ 19/ 23 1016.3R   3/ 4
NORTHPORT PIER   0100   53      10/ 16/ 21 1017.3R
KEWAUNEE LAKESHO 0100   58     330/  1/  3 1013.7R
SHEBOYGAN LAKESH 0100   58 49  200/  8/  8 1015.9R
PORT WASHINGTON  0100   59     220/  4/  7 1016.3
ATWATER BUOY     0100   59     170/  8/ 10 1016.7R
MILWAUKEE LAKESH 0100   59     190/  5/  5   N/A
S MID LAKE BUOY  0050   62 64  160/  4/  6 1016.0R   0
KENOSHA   LAKESH 0000   62     160/  9/ 10 1015.2R
$$

TC  - TEMPERATURE IN CELSIUS
VSB - VISIBILITY IN STATUTE MILES
WCI - WIND CHILL INDEX
HX  - HEAT INDEX



USA.gov is the U.S. government's official web portal to all federal, state and local government web resources and services.